Tracking 29892 objects as of 21-Nov-2024
HD Live streaming from Space Station
objects crossing your sky now

QIANFAN-34

Track QIANFAN-34 now!
10-day predictions


NORAD ID: 61567
Int'l Code: 2024-185R
Perigee: 803.0 km
Apogee: 819.0 km
Inclination: 89.0 °
Period: 101.0 minutes
Semi major axis: 7182 km
RCS: Unknown
Launch date: October 15, 2024
Source: People's Republic of China (PRC)
Launch site: Taiyaun Space Center, China (TSC)
Your satellite tracking list
Your tracking list is empty




NASA's NSSDC Master Catalog

Two Line Element Set (TLE):
1 61567U 24185R   24325.91401229  .00000865  00000-0  35402-3 0  9995
2 61567  88.9885 122.1182 0011170 111.5052 248.7333 14.26376005 14992
Source of the keplerian elements: AFSPC